Regional Weather Roundup
Issued by NWS Albany, NY

Home | Current Version | Previous Version | Text Only | Print | Product List | Glossary On
Versions: 1 2 3 4 5 6 7 8 9 10 11 12 13 14 15 16 17 18 19 20 21 22 23 24 25 26 27 28 29 30 31 32 33 34 35 36 37 38 39 40 41 42 43 44 45 46 47 48 49 50
000
ASUS41 KALY 241810
RWRALY

NEW YORK STATE HOURLY WEATHER ROUNDUP
NATIONAL WEATHER SERVICE ALBANY NY
200 PM EDT THU JUL 24 2014

NOTE: "FAIR" INDICATES FEW OR NO CLOUDS BELOW 12,000 FEET WITH NO
SIGNIFICANT WEATHER AND/OR NO OBSTRUCTIONS TO VISIBILITY.

NYZ032-033-038>043-046>054-057>066-NYZ062>081-241900-
EAST


CITY           SKY/WX    TMP DP  RH WIND       PRES   REMARKS
ALBANY         PTSUNNY   75  59  57 NW7       29.90F
GLENS FALLS    PTSUNNY   75  56  51 NE7       29.90F
POUGHKEEPSIE   MOSUNNY   78  58  49 VRB7      29.87F
NEWBURGH       PTSUNNY   75  61  60 N7        29.90
MONTGOMERY     MOSUNNY   78  60  53 NE7       29.88F
WHITE PLAINS   CLOUDY    75  57  53 N13G21    29.87F
ISLIP          CLOUDY    79  60  52 NW13      29.83S
NEW YORK CITY  CLOUDY    76  59  55 N10       29.86S
CENTRAL PARK   CLOUDY    77  61  57 NE6       29.90S
$$

NYZ005>009-017-018-044>046-055-056-241900-
CENTRAL


CITY           SKY/WX    TMP DP  RH WIND       PRES   REMARKS
FULTON         SUNNY     68  49  50 NW8       30.02F
SYRACUSE       MOSUNNY   72  49  44 NW14      30.00F
ROME           MOSUNNY   72  52  49 W14       29.97F
ELMIRA         PTSUNNY   70  51  51 N9        30.01S
BINGHAMTON     PTSUNNY   67  50  54 N16G22    29.99F
MONTICELLO     PTSUNNY   70  50  49 N14G22    29.94F
$$

NYZ026>034-041>043-241900-
NORTH


CITY           SKY/WX    TMP DP  RH WIND       PRES   REMARKS
WATERTOWN      SUNNY     71  47  42 N9        30.00S
FORT DRUM      NOT AVBL
MASSENA        SUNNY     69  50  50 N8        29.99S
SARANAC LAKE   PTSUNNY   64  48  56 VRB5      29.97R
PLATTSBURGH    MOSUNNY   71  51  49 N12G18    29.93F
$$

NYZ001>004-010>016-019>021-241900-
WEST


CITY           SKY/WX    TMP DP  RH WIND       PRES   REMARKS
NIAGARA FALLS  MOSUNNY   68  47  46 NW8G17    30.06F
BUFFALO        MOSUNNY   69  45  41 NW9       30.05F
DUNKIRK        CLOUDY    68  49  50 NW8       30.07S
JAMESTOWN      PTSUNNY   64  50  59 NW13      30.07S
WELLSVILLE     MOSUNNY   69  51  52 VRB5G18   30.06F
ROCHESTER      MOSUNNY   68  46  45 NE10      30.05F
PENN YAN       SUNNY     69  48  47 NW9G18    30.04S
$$

             KEY
       WCI = WIND CHILL INDEX
       VSB = VISIBILITY
       HX  = HEAT INDEX
$$


USA.gov is the U.S. government's official web portal to all federal, state and local government web resources and services.